[[{"header":{"parameterUnit":"m.s-1","parameterCategory":1,"la1":30.2991,"la2":30.254,"lo1":-89.0895,"lo2":-89.0444,"dy":0.0017,"dx":0.0017,"nx":28,"ny":28,"refTime":"2024-05-04T09:00:00:Z","depth":0,"parameterNumber":2,"parameterNumberName":"U-component_of_WINDS"},"data":[0,0,0,0,0,0,0,0,0,0,0,0,0,0,0,0,0,0,0,0,0,0,0,0,0,0,0,0,0,0,0,0,0,0,0,0,0,0,0,0,0,0,0,0,0,0,0,0,0,0,0,0,0,0,0,0,0,0,-3.5566,-3.5565,0,-3.5527,-3.5526,-3.5526,-3.543,-3.5428,-3.5426,-3.5424,-3.5387,-3.5388,-3.5389,0,0,0,0,0,0,0,0,0,0,0,0,0,-3.5561,-3.5561,-3.5566,-3.5565,-3.5565,-3.5527,-3.5526,-3.5526,-3.543,-3.5428,-3.5426,-3.5423,-3.5387,-3.5388,-3.5389,0,0,0,0,0,0,0,0,0,0,0,0,0,-3.5547,-3.5561,-3.5566,-3.5512,-3.5507,-3.5527,-3.5526,-3.5526,-3.5431,-3.5428,-3.5425,-3.5422,-3.5387,-3.5388,-3.5389,-3.5459,0,0,-3.5394,-3.5394,0,0,0,0,0,0,0,0,-3.5547,-3.5547,-3.5521,-3.5516,-3.551,-3.548,-3.5511,-3.5503,-3.5432,-3.546,-3.5424,-3.5421,-3.5421,-3.5419,-3.5419,-3.5457,-3.5455,-3.5394,-3.5395,-3.5395,-3.5396,0,0,0,0,0,0,0,-3.5549,-3.5548,-3.555,-3.5521,-3.5514,-3.5492,-3.5486,-3.5509,-3.5458,-3.5457,-3.545,-3.5447,-3.5418,-3.5418,-3.5417,-3.5455,-3.5394,-3.5395,-3.5396,-3.5396,-3.5549,-3.5552,0,0,0,0,0,0,-3.5557,-3.5549,-3.5552,-3.5549,-3.5522,-3.5494,-3.5488,-3.5493,-3.5458,-3.5449,-3.545,-3.5443,-3.5417,-3.5416,-3.5416,-3.5494,-3.5395,-3.5396,-3.5397,-3.5546,-3.555,-3.5553,0,0,0,0,0,0,-3.5557,-3.5558,-3.5553,-3.5547,-3.5545,-3.5497,-3.5504,-3.5494,-3.5494,-3.5452,-3.5442,-3.5459,-3.5414,-3.5414,-3.5449,-3.5491,-3.5397,-3.5398,-3.5542,-3.5547,-3.5551,-3.5652,0,0,0,0,0,0,-3.5557,-3.5558,-3.5583,-3.5549,-3.5546,-3.5586,-3.5506,-3.5495,-3.5496,-3.5487,-3.5458,-3.545,-3.5412,-3.5447,-3.545,-3.5492,-3.5399,-3.5538,-3.5544,-3.555,-3.5645,-3.566,-3.5673,0,0,0,0,0,-3.5557,-3.5614,-3.5585,-3.5586,-3.5576,-3.5589,-3.5587,-3.5541,-3.55,-3.5525,-3.5498,-3.5451,-3.5487,-3.5452,-3.5454,-3.5497,-3.5535,-3.5542,-3.5549,-3.5638,-3.5657,-3.5672,0,0,0,0,0,0,-3.5655,-3.5608,-3.5576,-3.5622,-3.561,-3.5572,-3.5602,-3.5562,-3.5562,-3.5553,-3.5497,-3.5492,-3.5534,-3.5519,-3.5481,-3.5562,-3.5503,-3.5511,-3.557,-3.5587,-3.5601,-3.5603,-3.54,0,0,0,0,0,-3.5682,-3.5696,-3.5654,-3.5699,-3.5695,-3.565,-3.5654,-3.562,-3.5605,-3.56,-3.5575,-3.5564,-3.5573,-3.5579,-3.5585,-3.5643,-3.5635,-3.5674,-3.5688,-3.5699,-3.5707,-3.5736,-3.5753,-3.5577,-3.5577,-3.5577,0,0,-3.5738,-3.5714,-3.5726,-3.5718,-3.5705,-3.5721,-3.5646,-3.5666,-3.5678,-3.5603,-3.5634,-3.5617,-3.56,-3.5647,-3.5666,-3.5636,-3.5754,-3.5709,-3.5718,-3.5719,-3.5746,-3.5762,-3.5777,-3.5582,-3.5581,-3.558,0,0,-3.5847,-3.5831,-3.5866,-3.5855,-3.5835,-3.5805,-3.5814,-3.5783,-3.5768,-3.5798,-3.5742,-3.5756,-3.5772,-3.5763,-3.576,-3.5869,-3.5826,-3.5873,-3.5945,-3.5975,-3.5989,-3.6001,-3.6039,-3.6053,-3.588,-3.5881,-3.5881,0,-3.5919,-3.594,-3.589,-3.5914,-3.5912,-3.5845,-3.5882,-3.5873,-3.5857,-3.5858,-3.5824,-3.5843,-3.5828,-3.5871,-3.5898,-3.5898,-3.5907,-3.5875,-3.5991,-3.6002,-3.6013,-3.6048,-3.6063,-3.5886,-3.5886,-3.5885,-3.5885,0,-3.6029,-3.6045,-3.6077,-3.6062,-3.6064,-3.6095,-3.605,-3.6059,-3.6026,-3.6,-3.6033,-3.6012,-3.6012,-3.6021,-3.5988,-3.606,-3.6042,-3.6,-3.5939,-3.6036,-3.6069,-3.6082,-3.5895,-3.5892,-3.5891,-3.5889,0,0,-3.6197,-3.6155,-3.6168,-3.616,-3.6135,-3.6146,-3.6175,-3.6174,-3.6183,-3.6175,-3.6197,-3.6213,-3.6175,-3.6172,-3.6139,-3.6165,-3.6252,-3.612,-3.6119,-3.6145,-3.633,-3.6361,-3.6377,-3.6224,-3.6227,-3.6229,-3.6331,0,-3.6299,-3.6343,-3.63,-3.6352,-3.6367,-3.6304,-3.6329,-3.6317,-3.6294,-3.6304,-3.628,-3.6292,-3.624,-3.6238,-3.6262,-3.6237,-3.6289,-3.6229,-3.6245,-3.6246,-3.6249,-3.6394,-3.6426,-3.6524,-3.6344,-3.6346,-3.6348,0,-3.6423,-3.642,-3.6475,-3.6446,-3.6451,-3.6473,-3.647,-3.648,-3.6466,-3.6448,-3.6446,-3.6405,-3.6432,-3.6374,-3.6411,-3.6371,-3.6375,-3.6365,-3.6367,-3.6366,-3.6301,-3.6396,-3.6554,-3.6569,-3.6367,-3.6366,-3.6364,0,-3.6539,-3.6549,-3.6583,-3.6579,-3.6547,-3.6564,-3.6552,-3.6535,-3.6538,-3.6536,-3.6537,-3.6539,-3.654,-3.6543,-3.6504,-3.6466,-3.6546,-3.6485,-3.6532,-3.6533,-3.655,-3.6549,-3.671,-3.6555,-3.6555,-3.6555,-3.6555,0,-3.6657,-3.6692,-3.6634,-3.6655,-3.6694,-3.6645,-3.6685,-3.6666,-3.6652,-3.6668,-3.6616,-3.6633,-3.6582,-3.6594,-3.6564,-3.6599,-3.66,-3.6587,-3.6578,-3.6591,-3.6592,-3.6591,-3.6583,-3.6559,-3.6558,-3.6557,-3.6556,0,-3.6792,-3.6755,-3.6787,-3.6755,-3.6747,-3.6777,-3.675,-3.6768,-3.6743,-3.6765,-3.6768,-3.6729,-3.674,-3.6703,-3.6709,-3.6689,-3.674,-3.6721,-3.6744,-3.6738,-3.6786,-3.6782,-3.6951,-3.6971,-3.6805,-3.6807,-3.6808,0,-3.6869,-3.6894,-3.6865,-3.6872,-3.6862,-3.6875,-3.6877,-3.6831,-3.6837,-3.6823,-3.6844,-3.6851,-3.6854,-3.6876,-3.6849,-3.6854,-3.6834,-3.6893,-3.6834,-3.6846,-3.6834,-3.6832,-3.6834,-3.6905,-3.6907,-3.6908,-3.691,0,-3.7009,-3.6989,-3.6994,-3.6994,-3.6999,-3.6996,-3.6991,-3.7,-3.6951,-3.696,-3.6971,-3.6973,-3.698,-3.6988,-3.6987,-3.6975,-3.6935,-3.6929,-3.694,-3.6952,-3.6964,-3.6957,-3.6776,-3.6925,-3.6923,-3.6922,-3.6921,-3.6921,-3.7116,-3.7136,-3.7118,-3.7127,-3.7118,-3.7114,-3.7129,-3.7106,-3.7114,-3.7115,-3.7088,-3.7105,-3.7092,-3.7086,-3.7079,-3.7092,-3.7065,-3.7081,-3.7085,-3.7089,-3.7097,-3.6963,-3.7092,-3.7092,-3.7091,-3.7091,-3.709,0,-3.7252,-3.7238,-3.7246,-3.724,-3.7247,-3.7208,-3.72,-3.7208,-3.7224,-3.7214,-3.7219,-3.7232,-3.724,-3.7214,-3.7219,-3.7235,-3.7216,-3.7237,-3.7235,-3.7233,-3.7122,-3.7111,-3.7252,-3.7252,-3.7252,-3.7252,-3.7252,-3.7252,-3.7324,-3.7356,-3.7335,-3.7362,-3.7348,-3.7363,-3.7362,-3.7359,-3.7351,-3.7368,-3.7374,-3.7357,-3.7342,-3.7345,-3.7351,-3.7343,-3.7347,-3.7375,-3.7361,-3.7257,-3.7241,-3.7226,-3.7216,-3.7376,-3.7376,-3.7471,-3.7471,-3.7472]},{"header":{"parameterUnit":"m.s-1","parameterCategory":1,"la1":30.2991,"la2":30.254,"lo1":-89.0895,"lo2":-89.0444,"dy":0.0017,"dx":0.0017,"nx":28,"ny":28,"refTime":"2024-05-04T09:00:00:Z","depth":0,"parameterNumber":3,"parameterNumberName":"V-component_of_WINDS"},"data":[0,0,0,0,0,0,0,0,0,0,0,0,0,0,0,0,0,0,0,0,0,0,0,0,0,0,0,0,0,0,0,0,0,0,0,0,0,0,0,0,0,0,0,0,0,0,0,0,0,0,0,0,0,0,0,0,0,0,2.532,2.5319,0,2.5272,2.5272,2.5271,2.5236,2.5236,2.5235,2.5235,2.5182,2.5181,2.518,0,0,0,0,0,0,0,0,0,0,0,0,0,2.5379,2.5378,2.532,2.5319,2.5319,2.5272,2.5272,2.5271,2.5236,2.5236,2.5235,2.5235,2.5183,2.5181,2.518,0,0,0,0,0,0,0,0,0,0,0,0,0,2.5344,2.5378,2.532,2.5296,2.5293,2.5273,2.5272,2.5271,2.5236,2.5236,2.5235,2.5235,2.5183,2.5181,2.518,2.5178,0,0,2.5175,2.5174,0,0,0,0,0,0,0,0,2.5346,2.5342,2.53,2.5297,2.5294,2.526,2.5273,2.524,2.5236,2.5258,2.5235,2.5235,2.5208,2.5204,2.5196,2.5176,2.5173,2.5174,2.5173,2.5173,2.5172,0,0,0,0,0,0,0,2.5349,2.5344,2.5301,2.5299,2.5296,2.5287,2.5281,2.5267,2.5236,2.5256,2.5253,2.5248,2.5206,2.5198,2.5195,2.5173,2.5174,2.5173,2.5172,2.5171,2.515,2.5151,0,0,0,0,0,0,2.5355,2.5346,2.5302,2.53,2.532,2.5286,2.528,2.5271,2.5236,2.523,2.5249,2.5247,2.5201,2.5197,2.5193,2.5189,2.5173,2.5171,2.517,2.515,2.5151,2.5151,0,0,0,0,0,0,2.5357,2.5352,2.5304,2.5322,2.5315,2.5285,2.5276,2.5271,2.5262,2.5231,2.5225,2.5246,2.5201,2.5195,2.5183,2.5187,2.517,2.5169,2.5149,2.515,2.5151,2.5182,0,0,0,0,0,0,2.5359,2.5352,2.5352,2.5322,2.5315,2.5296,2.5276,2.527,2.526,2.5257,2.5226,2.5221,2.52,2.5186,2.5181,2.5184,2.5167,2.5149,2.515,2.5151,2.5181,2.5184,2.5187,0,0,0,0,0,2.5361,2.5361,2.5352,2.5347,2.5313,2.5296,2.5291,2.5269,2.526,2.5259,2.5239,2.5222,2.5188,2.5185,2.5179,2.5182,2.5148,2.515,2.5151,2.5179,2.5184,2.5187,0,0,0,0,0,0,2.5389,2.5357,2.5346,2.5337,2.532,2.529,2.5288,2.5273,2.5257,2.5255,2.5226,2.5219,2.521,2.5195,2.5192,2.518,2.5166,2.5166,2.519,2.5193,2.5196,2.52,2.5166,0,0,0,0,0,2.5395,2.5385,2.5356,2.5351,2.5344,2.5318,2.5309,2.5294,2.5274,2.5266,2.5245,2.5226,2.5211,2.5201,2.5186,2.5179,2.5172,2.5179,2.5182,2.5185,2.5185,2.5181,2.5184,2.5155,2.5155,2.5154,0,0,2.5406,2.5387,2.5382,2.5357,2.5342,2.5331,2.5311,2.53,2.5292,2.5264,2.5251,2.5236,2.5212,2.5204,2.5198,2.519,2.5192,2.5186,2.5188,2.5187,2.5183,2.5185,2.5188,2.5155,2.5155,2.5155,0,0,2.542,2.5405,2.54,2.5386,2.5364,2.5347,2.5346,2.5319,2.5308,2.5296,2.5275,2.5265,2.524,2.5224,2.5213,2.5226,2.5209,2.5222,2.5237,2.5234,2.5236,2.5238,2.5243,2.5245,2.5222,2.5222,2.5222,0,2.5436,2.542,2.5398,2.539,2.538,2.5356,2.5351,2.5338,2.5311,2.5305,2.5297,2.5267,2.5249,2.5237,2.5241,2.5232,2.523,2.5224,2.5238,2.524,2.5241,2.5245,2.5247,2.5224,2.5224,2.5223,2.5223,0,2.5441,2.543,2.5429,2.5406,2.5396,2.5389,2.5366,2.5359,2.5345,2.5329,2.5318,2.5297,2.5277,2.5274,2.5259,2.526,2.5256,2.5244,2.5229,2.5246,2.525,2.5251,2.5226,2.5226,2.5225,2.5225,0,0,2.5469,2.5437,2.5437,2.5427,2.5403,2.5394,2.5387,2.537,2.5364,2.5348,2.5341,2.5322,2.5311,2.5299,2.5283,2.528,2.5293,2.5268,2.5267,2.5273,2.5293,2.5302,2.5304,2.5282,2.5283,2.5283,2.5295,0,2.5479,2.5465,2.5447,2.5439,2.543,2.5409,2.5403,2.5387,2.5373,2.5362,2.5346,2.5333,2.532,2.5313,2.531,2.5292,2.5296,2.5291,2.5275,2.5275,2.528,2.5306,2.5315,2.5327,2.5296,2.5297,2.5297,0,2.5488,2.5475,2.5467,2.5446,2.5442,2.5436,2.542,2.5411,2.5393,2.5383,2.5372,2.5355,2.5346,2.5335,2.5322,2.5319,2.5312,2.5302,2.5302,2.5299,2.5286,2.5303,2.5331,2.5333,2.5299,2.5298,2.5298,0,2.551,2.5491,2.5484,2.5476,2.5451,2.5448,2.5437,2.5419,2.5411,2.5397,2.5392,2.5377,2.5368,2.5357,2.5337,2.533,2.5327,2.5313,2.5318,2.5318,2.5316,2.5317,2.5343,2.5313,2.5313,2.5313,2.5313,0,2.5523,2.5519,2.5493,2.5489,2.5484,2.5464,2.5459,2.5447,2.5432,2.5424,2.5405,2.5398,2.5373,2.5363,2.5348,2.534,2.5337,2.5328,2.5324,2.5329,2.533,2.5323,2.5321,2.5314,2.5314,2.5314,2.5314,0,2.5545,2.5528,2.5519,2.5498,2.5492,2.549,2.5471,2.5466,2.5452,2.5443,2.544,2.5417,2.5405,2.5385,2.5367,2.5356,2.5352,2.5345,2.5358,2.5355,2.5361,2.5361,2.5383,2.5385,2.5355,2.5356,2.5356,0,2.5554,2.5551,2.553,2.5525,2.5515,2.5506,2.5499,2.5479,2.5472,2.5453,2.5451,2.5438,2.5426,2.5409,2.539,2.5376,2.5369,2.5378,2.5366,2.5373,2.5369,2.5369,2.5369,2.538,2.538,2.538,2.5381,0,2.5572,2.5564,2.5555,2.5543,2.5535,2.5524,2.5512,2.5509,2.5486,2.5479,2.5468,2.546,2.5443,2.543,2.5414,2.5403,2.5388,2.5385,2.5385,2.539,2.5398,2.5394,2.5365,2.5384,2.5384,2.5383,2.5383,2.5383,2.5587,2.5584,2.557,2.556,2.555,2.554,2.5535,2.5522,2.5512,2.5498,2.5487,2.5477,2.5461,2.5439,2.5429,2.542,2.5413,2.5414,2.5414,2.5414,2.5416,2.5401,2.5417,2.5417,2.5417,2.5417,2.5417,0,2.5604,2.5595,2.5586,2.5572,2.5564,2.5554,2.5541,2.5535,2.5527,2.5514,2.5504,2.5492,2.5481,2.5463,2.545,2.5447,2.544,2.5444,2.5444,2.5441,2.5423,2.5424,2.545,2.545,2.545,2.545,2.545,2.545,2.5612,2.5606,2.5598,2.5587,2.5577,2.5568,2.5562,2.5553,2.5543,2.5531,2.5522,2.5512,2.5497,2.5484,2.5473,2.5468,2.5464,2.547,2.5463,2.5446,2.5442,2.5439,2.544,2.5469,2.5469,2.5482,2.5482,2.5482]}]]